This is the latest recevied weather packets stored in our database for station/object IK2CHZ-3. If no packets are shown the sender has not sent any weather packets the latest 10 day(s).
| Time | Temp. | Humidity | Pressure | Rain* | Wind** | Luminosity | Snow |
|---|---|---|---|---|---|---|---|
| 1777809287 | 23.89° C | 31% | 1018.1 hPa | 0 mm | - | - | - |
| 1777808627 | 23.89° C | 31% | 1018.2 hPa | 0 mm | - | - | - |
| 1777807965 | 23.89° C | 31% | 1018.2 hPa | 0 mm | - | - | - |
| 1777807305 | 23.89° C | 32% | 1018.3 hPa | 0 mm | - | - | - |
| 1777806646 | 23.33° C | 31% | 1018.2 hPa | 0 mm | - | - | - |
| 1777805987 | 23.33° C | 33% | 1018.3 hPa | 0 mm | - | - | - |
| 1777805302 | 22.78° C | 34% | 1018.3 hPa | 0 mm | - | - | - |
| 1777804429 | 22.78° C | 35% | 1018.4 hPa | 0 mm | - | - | - |
| 1777803770 | 22.78° C | 35% | 1018.5 hPa | 0 mm | - | - | - |
| 1777803109 | 22.78° C | 34% | 1018.6 hPa | 0 mm | - | - | - |
| 1777802449 | 22.22° C | 35% | 1018.6 hPa | 0 mm | - | - | - |
| 1777801790 | 22.22° C | 33% | 1018.7 hPa | 0 mm | - | - | - |
| 1777801130 | 22.22° C | 39% | 1018.8 hPa | 0 mm | - | - | - |
| 1777800467 | 21.67° C | 43% | 1019 hPa | 0 mm | - | - | - |
| 1777799808 | 22.22° C | 43% | 1019.1 hPa | 0 mm | - | - | - |
| 1777799163 | 21.67° C | 43% | 1019.1 hPa | 0 mm | - | - | - |
| 1777798503 | 21.11° C | 43% | 1019.1 hPa | 0 mm | - | - | - |
| 1777797843 | 21.67° C | 44% | 1019.2 hPa | 0 mm | - | - | - |
| 1777797184 | 20.56° C | 46% | 1019.2 hPa | 0 mm | - | - | - |
| 1777796523 | 20.56° C | 47% | 1019.3 hPa | 0 mm | - | - | - |
| 1777795864 | 20° C | 50% | 1019.4 hPa | 0 mm | - | - | - |
| 1777795204 | 20° C | 50% | 1019.4 hPa | 0 mm | - | - | - |
| 1777794542 | 20° C | 51% | 1019.4 hPa | 0 mm | - | - | - |
| 1777793883 | 20° C | 50% | 1019.4 hPa | 0 mm | - | - | - |
| 1777793222 | 19.44° C | 49% | 1019.5 hPa | 0 mm | - | - | - |
* Rain latest hour (hover to see other rain measurements)
** Current wind speed in m/s (hover to see current wind gust speed)